This is the latest recevied weather packets stored in our database for station/object N1IJV-10. If no packets are shown the sender has not sent any weather packets the latest 10 day(s).
| Time | Temp. | Humidity | Pressure | Rain* | Wind** | Luminosity | Snow |
|---|---|---|---|---|---|---|---|
| 1777299755 | 13.33° C | 94% | 1009 hPa | 4.32 mm | - | 41 W/m² | - |
| 1777299452 | 13.89° C | 93% | 1009.5 hPa | 9.65 mm | - | 31 W/m² | - |
| 1777299150 | 13.89° C | 91% | 1009.8 hPa | 7.87 mm | - | 23 W/m² | - |
| 1777298847 | 14.44° C | 88% | 1010 hPa | 1.27 mm | - | 34 W/m² | - |
| 1777298543 | 14.44° C | 88% | 1009.9 hPa | 0 mm | - | 49 W/m² | - |
| 1777298240 | 14.44° C | 87% | 1009.9 hPa | 0 mm | - | 43 W/m² | - |
| 1777297935 | 14.44° C | 85% | 1009.9 hPa | 0 mm | - | 80 W/m² | - |
| 1777297632 | 14.44° C | 83% | 1009.9 hPa | 0 mm | - | 54 W/m² | - |
| 1777297330 | 14.44° C | 82% | 1010 hPa | 0 mm | - | 36 W/m² | - |
| 1777297026 | 14.44° C | 82% | 1010 hPa | 0 mm | - | 41 W/m² | - |
| 1777296722 | 14.44° C | 82% | 1009.4 hPa | 0 mm | - | 36 W/m² | - |
| 1777296413 | 14.44° C | 82% | 1009.6 hPa | 0 mm | - | 31 W/m² | - |
| 1777296109 | 14.44° C | 82% | 1009.7 hPa | 0 mm | - | 28 W/m² | - |
| 1777295806 | 14.44° C | 82% | 1009.4 hPa | 0 mm | - | 33 W/m² | - |
| 1777295504 | 14.44° C | 82% | 1009.5 hPa | 0 mm | - | 46 W/m² | - |
| 1777295201 | 14.44° C | 81% | 1009.1 hPa | 0 mm | - | 75 W/m² | - |
| 1777294898 | 14.44° C | 82% | 1009.2 hPa | 0 mm | - | 75 W/m² | - |
| 1777294593 | 13.89° C | 82% | 1009.1 hPa | 0 mm | - | 81 W/m² | - |
| 1777294290 | 13.89° C | 82% | 1009.3 hPa | 0 mm | - | 74 W/m² | - |
| 1777293986 | 13.89° C | 83% | 1009.4 hPa | 0 mm | - | 76 W/m² | - |
| 1777293683 | 13.89° C | 83% | 1009.2 hPa | 0 mm | - | 68 W/m² | - |
| 1777293383 | 13.89° C | 84% | 1009.5 hPa | 0 mm | - | 60 W/m² | - |
| 1777293079 | 13.33° C | 84% | 1010.1 hPa | 0 mm | - | 48 W/m² | - |
| 1777292778 | 13.33° C | 84% | 1010.3 hPa | 0 mm | - | 40 W/m² | - |
| 1777292474 | 13.33° C | 84% | 1010.8 hPa | 0 mm | - | 26 W/m² | - |
* Rain latest hour (hover to see other rain measurements)
** Current wind speed in m/s (hover to see current wind gust speed)